Japanese version Home page |
Updated on October 9, 2020 |
Profile
|
Orbital ElementsEpoch 2019 July 16.0 TT = JDT 2458680.5 T 2019 July 22.37804 TT Rudenko q 1.2579157 (2000.0) P Q z +0.0166907 Peri. 176.27536 +0.97989090 +0.19328821 +/-0.0004113 Node 187.95485 +0.17257319 -0.69634877 e 0.9790045 Incl. 159.02779 +0.10016151 -0.69118598 H 18.0 From 62 observations 2019 Aug. 24-Oct. 9, mean residual 0".7.
|
Magnitudes GraphH = 18.0 G = 0.15
|
The orbital elements are published on M.P.E.C. 2020-S188.
|